Odiham, United Kingdom

6:01 AM BST on April 27, 2018 (GMT +0100)
Odiham Air Base

Weather History for EGVO - January, 2013

Change the Weather History Date:

Wednesday, January 30, 2013

  Actual Average Record
Temperature  
Mean Temperature 46 °F -  
Max Temperature 51 °F - - ()
Min Temperature 42 °F - - ()
Degree Days  
Heating Degree Days 18    
Moisture  
Dew Point 41 °F    
Average Humidity 75    
Maximum Humidity 100    
Minimum Humidity 43    
Precipitation  
Precipitation 0.01 in - - ()
Sea Level Pressure  
Sea Level Pressure 29.78 in    
Wind  
Wind Speed 20 mph ()    
Max Wind Speed 29 mph    
Max Gust Speed 45 mph    
Visibility 7.3 miles    
Events Rain    
T = Trace of Precipitation, MM = Missing Value Source: Averaged Metar Reports

Daily Weather History Graph

Daily Weather History Graph

Search for Another Location

Airport or City:

Astronomy

Jan. 30, 2013 Rise Set
Actual Time 7:44 AM GMT 4:50 PM GMT
Civil Twilight 7:07 AM GMT 5:27 PM GMT
Nautical Twilight 6:27 AM GMT 6:07 PM GMT
Astronomical Twilight 5:48 AM GMT 6:46 PM GMT
Moon 9:06 PM GMT (1/30) 8:35 AM GMT (1/30)
Length of Visible Light 10h 19m
Length of Day
9h 06m
Waning Gibbous, 89% of the Moon is Illuminated
Jan 30
Waning Gibbous
Feb 3
Last Quarter
Feb 10
New
Feb 17
First Quarter
Feb 25
Full

Hourly Weather History & Observations

Time (GMT) Temp. Windchill Dew Point Humidity Pressure Visibility Wind Dir Wind Speed Gust Speed Precip Events Conditions
12:50 AM 53.6 °F - 51.8 °F 94% 29.53 in 2.5 mi SSW 26.5 mph 41.4 mph N/A Rain Rain
1:50 AM 51.8 °F - 51.8 °F 100% 29.53 in 2.5 mi SSW 25.3 mph - N/A Rain Rain
2:50 AM 53 °F - 52 °F 93% 29.54 in 2 mi SW 24.2 mph - - Rain Rain
2:50 AM 53.6 °F - 51.8 °F 94% 29.53 in 1.6 mi SW 24.2 mph - N/A Rain Rain
3:50 AM 48.2 °F - 46.4 °F 93% 29.56 in 6.2 mi West 16.1 mph - N/A Rain Light Rain
4:50 AM 48.2 °F - 46.4 °F 93% 29.56 in 6.2 mi WSW 11.5 mph - N/A Rain Light Rain
5:50 AM 47 °F - 46 °F 92% 29.60 in 19 mi SW 13.8 mph - - Rain Light Rain
5:50 AM 48.2 °F - 46.4 °F 93% 29.59 in - SW 13.8 mph - N/A   Clear
6:50 AM 48.2 °F - 44.6 °F 87% 29.62 in 6.2 mi SW 20.7 mph - N/A   Scattered Clouds
7:50 AM 48.2 °F - 44.6 °F 87% 29.65 in 6.2 mi SW 20.7 mph - N/A   Mostly Cloudy
8:50 AM 48 °F - 44 °F 81% 29.68 in 25 mi SW 20.7 mph - -   Scattered Clouds
8:50 AM 48.2 °F - 44.6 °F 87% 29.65 in 6.2 mi SW 20.7 mph - N/A   Mostly Cloudy
9:50 AM 48.2 °F - 42.8 °F 82% 29.71 in 6.2 mi WSW 24.2 mph 40.3 mph N/A   Mostly Cloudy
10:50 AM 50.0 °F - 42.8 °F 76% 29.74 in 6.2 mi WSW 19.6 mph - N/A   Partly Cloudy
11:50 AM 51 °F - 40 °F 57% 29.77 in 16 mi WSW 23.0 mph - -   Partly Cloudy
11:50 AM 50.0 °F - 41.0 °F 71% 29.74 in 6.2 mi WSW 23.0 mph 34.5 mph N/A   Scattered Clouds
12:50 PM 50.0 °F - 35.6 °F 58% 29.77 in 6.2 mi WSW 28.8 mph 44.9 mph N/A   Scattered Clouds
1:50 PM 50.0 °F - 33.8 °F 54% 29.80 in 6.2 mi West 25.3 mph 38.0 mph N/A   Scattered Clouds
2:50 PM 50 °F - 35 °F 43% 29.83 in 19 mi WSW 26.5 mph - -   Scattered Clouds
2:50 PM 50.0 °F - 33.8 °F 54% 29.80 in 6.2 mi WSW 26.5 mph 40.3 mph N/A   Partly Cloudy
3:50 PM 50.0 °F - 33.8 °F 54% 29.86 in 6.2 mi WSW 28.8 mph - N/A   Scattered Clouds
4:50 PM 48.2 °F - 32.0 °F 54% 29.86 in 6.2 mi WSW 24.2 mph 35.7 mph N/A   Partly Cloudy
5:50 PM 48 °F - 34 °F 46% 29.93 in 12 mi WSW 23.0 mph - -   Scattered Clouds
5:50 PM 48.2 °F - 33.8 °F 58% 29.92 in 6.2 mi WSW 23.0 mph - N/A   Partly Cloudy
6:50 PM 46.4 °F 38.1 °F 35.6 °F 66% 29.95 in 6.2 mi WSW 24.2 mph - N/A   Partly Cloudy
7:50 PM 46.4 °F 37.9 °F 35.6 °F 66% 29.98 in 6.2 mi WSW 25.3 mph - N/A   Partly Cloudy
8:50 PM 44 °F - 35 °F 63% 30.02 in 9 mi WSW 18.4 mph - -   Scattered Clouds
8:50 PM 44.6 °F 36.9 °F 35.6 °F 71% 30.01 in 6.2 mi WSW 18.4 mph - N/A   Mostly Cloudy
9:50 PM 42.8 °F 34.5 °F 37.4 °F 81% 30.01 in 6.2 mi SW 18.4 mph - N/A   Mostly Cloudy
10:50 PM 42.8 °F 35.1 °F 37.4 °F 81% 30.04 in - SW 16.1 mph - N/A   Clear
11:50 PM 43 °F - 38 °F 77% 30.07 in 9 mi SW 17.3 mph - -   Mostly Cloudy
11:50 PM 42.8 °F 34.8 °F 37.4 °F 81% 30.04 in - SW 17.3 mph - N/A   Clear